Location: Pl�tzky
(52.0521°N, 11.8020°E)
Time: 12:55:04
(UTC+00:00)

USA 229 - Pass Details

Date: 27 February 2020
Orbit: 986 x 1226 km, 63.4° (Epoch: 26 March)

Event Time Altitude Azimuth Distance (km) Brightness Sun altitude
Rises 21:02:00 0° 295° (WNW) 3,835 7.5 -37.4°
Reaches altitude 10° 21:04:53 10° 305° (NW) 2,916 6.7 -37.7°
Maximum altitude 21:11:08 34° 10° (N) 1,751 4.9 -38.4°
Enters shadow 21:11:13 34° 11° (N) 1,752 4.9 -38.4°
